CAL220 RCTP-RCKH

Flight info

Callsign CAL220
Flight time 0h 39m
Altitude 20000
Route CHALI1B CHALI T3 MKG W6 TNN TNN1J
Aircraft B77L/H-SDE1E2E3FGHIJ2J3J4J5M1RWXY/LB1D1

Departure

Time 2026-04-14 14:21
Airport Taiwan Taoyuan International Airport (RCTP)

Arrival

Time 2026-04-14 15:01
Airport Kaohsiung International Airport (RCKH)
Time Latitude Longitude Altitude Speed Heading
2026-04-14 13:48 25.08896 121.24158 105 ft 0 kts 139°
2026-04-14 14:01 25.08907 121.24148 105 ft 4 kts 139°
2026-04-14 14:01 25.08927 121.24128 102 ft 4 kts 139°
2026-04-14 14:02 25.08948 121.24108 103 ft 4 kts 139°
2026-04-14 14:02 25.08966 121.24091 103 ft 2 kts 152°
2026-04-14 14:02 25.08978 121.24087 105 ft 2 kts 188°
2026-04-14 14:02 25.08992 121.24093 104 ft 3 kts 217°
2026-04-14 14:03 25.09004 121.24104 103 ft 2 kts 225°
2026-04-14 14:03 25.09012 121.24113 105 ft 2 kts 228°
2026-04-14 14:03 25.09017 121.24119 107 ft 0 kts 229°
2026-04-14 14:07 25.09002 121.24099 105 ft 9 kts 230°
2026-04-14 14:07 25.08934 121.24011 105 ft 18 kts 230°
2026-04-14 14:08 25.08855 121.23911 106 ft 15 kts 229°
2026-04-14 14:08 25.08798 121.23839 107 ft 9 kts 229°
2026-04-14 14:08 25.08747 121.23816 106 ft 7 kts 173°
2026-04-14 14:08 25.08705 121.23844 105 ft 7 kts 140°
2026-04-14 14:09 25.08660 121.23885 106 ft 9 kts 140°
2026-04-14 14:09 25.08602 121.23941 108 ft 19 kts 139°
2026-04-14 14:09 25.08487 121.24050 107 ft 22 kts 139°
2026-04-14 14:09 25.08374 121.24157 105 ft 21 kts 139°
2026-04-14 14:10 25.08269 121.24258 108 ft 19 kts 139°
2026-04-14 14:10 25.08187 121.24336 107 ft 14 kts 140°
2026-04-14 14:10 25.08114 121.24403 105 ft 14 kts 138°
2026-04-14 14:10 25.08050 121.24471 107 ft 13 kts 123°
2026-04-14 14:11 25.08070 121.24556 105 ft 12 kts 47°
2026-04-14 14:11 25.08127 121.24626 104 ft 12 kts 51°
2026-04-14 14:11 25.08185 121.24701 104 ft 17 kts 47°
2026-04-14 14:11 25.08277 121.24819 106 ft 21 kts 48°
2026-04-14 14:12 25.08373 121.24939 106 ft 21 kts 49°
2026-04-14 14:12 25.08437 121.25024 106 ft 10 kts 66°
2026-04-14 14:12 25.08418 121.25088 103 ft 9 kts 133°
2026-04-14 14:12 25.08405 121.25102 103 ft 0 kts 140°
2026-04-14 14:13 25.08399 121.25107 102 ft 5 kts 139°
2026-04-14 14:14 25.08347 121.25154 98 ft 10 kts 149°
2026-04-14 14:14 25.08291 121.25144 99 ft 8 kts 216°
2026-04-14 14:14 25.08263 121.25116 99 ft 0 kts 225°
2026-04-14 14:20 25.08225 121.25069 100 ft 23 kts 228°
2026-04-14 14:20 25.08012 121.24800 98 ft 80 kts 229°
2026-04-14 14:20 25.07503 121.24154 98 ft 142 kts 229°
2026-04-14 14:21 25.06773 121.23204 161 ft 181 kts 230°
2026-04-14 14:21 25.05961 121.22170 830 ft 176 kts 229°
2026-04-14 14:21 25.05143 121.21135 1438 ft 174 kts 229°
2026-04-14 14:21 25.04346 121.20126 2119 ft 178 kts 229°
2026-04-14 14:22 25.03461 121.19007 2363 ft 204 kts 229°
2026-04-14 14:22 25.02483 121.17742 2610 ft 228 kts 235°
2026-04-14 14:22 25.01936 121.16080 3015 ft 247 kts 265°
2026-04-14 14:22 25.02275 121.14202 3015 ft 252 kts 294°
2026-04-14 14:23 25.03177 121.12516 3037 ft 258 kts 295°
2026-04-14 14:23 25.03674 121.10642 3028 ft 257 kts 267°
2026-04-14 14:23 25.03342 121.08735 3032 ft 253 kts 249°
2026-04-14 14:23 25.02708 121.06938 3018 ft 251 kts 245°
2026-04-14 14:24 25.02036 121.05169 3016 ft 249 kts 245°
2026-04-14 14:24 25.01352 121.03414 3014 ft 248 kts 245°
2026-04-14 14:24 25.00674 121.01668 3075 ft 248 kts 245°
2026-04-14 14:24 24.99995 120.99915 3742 ft 251 kts 245°
2026-04-14 14:25 24.99304 120.98135 4583 ft 253 kts 245°
2026-04-14 14:25 24.98463 120.96437 5356 ft 254 kts 236°
2026-04-14 14:25 24.97444 120.94821 6117 ft 259 kts 235°
2026-04-14 14:25 24.96405 120.93179 6807 ft 264 kts 236°
2026-04-14 14:26 24.95374 120.91491 7548 ft 266 kts 237°
2026-04-14 14:26 24.94360 120.89773 8310 ft 268 kts 238°
2026-04-14 14:26 24.93357 120.88029 9071 ft 271 kts 239°
2026-04-14 14:26 24.92354 120.86250 9797 ft 275 kts 239°
2026-04-14 14:27 24.91346 120.84436 10369 ft 284 kts 240°
2026-04-14 14:27 24.90275 120.82493 10567 ft 309 kts 240°
2026-04-14 14:27 24.89123 120.80388 10750 ft 333 kts 240°
2026-04-14 14:27 24.87884 120.78117 11020 ft 354 kts 240°
2026-04-14 14:28 24.86616 120.75790 11601 ft 363 kts 240°
2026-04-14 14:28 24.85302 120.73377 12384 ft 369 kts 240°
2026-04-14 14:28 24.83978 120.70945 13252 ft 372 kts 240°
2026-04-14 14:28 24.82641 120.68488 14058 ft 376 kts 240°
2026-04-14 14:29 24.81292 120.66010 14808 ft 379 kts 240°
2026-04-14 14:29 24.79933 120.63514 15556 ft 381 kts 240°
2026-04-14 14:29 24.78562 120.60996 16273 ft 385 kts 240°
2026-04-14 14:29 24.77179 120.58459 16976 ft 388 kts 240°
2026-04-14 14:30 24.75781 120.55896 17679 ft 392 kts 240°
2026-04-14 14:30 24.74314 120.53361 17904 ft 395 kts 235°
2026-04-14 14:30 24.72520 120.51061 18056 ft 399 kts 228°
2026-04-14 14:30 24.70517 120.48980 18661 ft 403 kts 223°
2026-04-14 14:31 24.68240 120.47091 19315 ft 406 kts 218°
2026-04-14 14:31 24.65928 120.45349 19858 ft 411 kts 217°
2026-04-14 14:31 24.63540 120.43574 19923 ft 417 kts 217°
2026-04-14 14:31 24.61133 120.41785 19938 ft 417 kts 217°
2026-04-14 14:32 24.58740 120.39996 19930 ft 416 kts 217°
2026-04-14 14:32 24.56355 120.38202 19932 ft 416 kts 218°
2026-04-14 14:32 24.53974 120.36404 19936 ft 416 kts 218°
2026-04-14 14:32 24.51591 120.34602 19939 ft 416 kts 218°
2026-04-14 14:33 24.49209 120.32802 19936 ft 416 kts 218°
2026-04-14 14:33 24.46820 120.30998 19935 ft 416 kts 218°
2026-04-14 14:33 24.44439 120.29196 19936 ft 416 kts 218°
2026-04-14 14:33 24.42067 120.27368 19936 ft 416 kts 218°
2026-04-14 14:34 24.37331 120.23686 19932 ft 416 kts 218°
2026-04-14 14:34 24.34969 120.21851 19936 ft 417 kts 218°
2026-04-14 14:34 24.32601 120.20015 19935 ft 417 kts 218°
2026-04-14 14:35 24.30260 120.18202 19938 ft 417 kts 218°
2026-04-14 14:35 24.27895 120.16373 19937 ft 417 kts 218°
2026-04-14 14:35 24.25518 120.14536 19933 ft 417 kts 218°
2026-04-14 14:35 24.23147 120.12704 19935 ft 417 kts 218°
2026-04-14 14:36 24.20775 120.10872 19934 ft 417 kts 218°
2026-04-14 14:36 24.18404 120.09042 19934 ft 417 kts 218°
2026-04-14 14:36 24.16032 120.07213 19934 ft 417 kts 218°
2026-04-14 14:36 24.13659 120.05381 19932 ft 417 kts 218°
2026-04-14 14:37 24.11289 120.03547 19937 ft 417 kts 218°
2026-04-14 14:37 24.09401 120.02085 19938 ft 417 kts 218°
2026-04-14 14:37 24.07032 120.00251 19937 ft 417 kts 218°
2026-04-14 14:37 24.04664 119.98419 19938 ft 417 kts 218°
2026-04-14 14:38 24.02293 119.96587 19936 ft 417 kts 218°
2026-04-14 14:38 23.99922 119.94756 19938 ft 417 kts 218°
2026-04-14 14:38 23.97545 119.92923 19935 ft 418 kts 218°
2026-04-14 14:38 23.95170 119.91094 19933 ft 418 kts 218°
2026-04-14 14:39 23.93568 119.89861 19931 ft 418 kts 218°
2026-04-14 14:39 23.91222 119.88055 19931 ft 418 kts 218°
2026-04-14 14:39 23.88040 119.85606 19930 ft 418 kts 218°
2026-04-14 14:39 23.85664 119.83778 19928 ft 418 kts 218°
2026-04-14 14:40 23.84088 119.82566 19924 ft 418 kts 218°
2026-04-14 14:40 23.81711 119.80738 19923 ft 418 kts 218°
2026-04-14 14:40 23.78523 119.78289 19919 ft 418 kts 218°
2026-04-14 14:40 23.76944 119.77076 19918 ft 418 kts 218°
2026-04-14 14:41 23.74566 119.75249 19920 ft 418 kts 218°
2026-04-14 14:41 23.72186 119.73422 19923 ft 418 kts 218°
2026-04-14 14:41 23.69804 119.71595 19922 ft 419 kts 218°
2026-04-14 14:41 23.67420 119.69768 19922 ft 419 kts 218°
2026-04-14 14:42 23.64028 119.67829 19918 ft 422 kts 198°
2026-04-14 14:42 23.62055 119.67453 19929 ft 429 kts 187°
2026-04-14 14:42 23.59062 119.67685 19933 ft 438 kts 171°
2026-04-14 14:42 23.56170 119.68818 19938 ft 447 kts 156°
2026-04-14 14:43 23.53640 119.70747 19918 ft 455 kts 138°
2026-04-14 14:43 23.51566 119.73288 19925 ft 446 kts 133°
2026-04-14 14:43 23.49606 119.75850 19855 ft 435 kts 133°
2026-04-14 14:43 23.47670 119.78375 19527 ft 430 kts 133°
2026-04-14 14:44 23.45731 119.80860 19119 ft 427 kts 134°
2026-04-14 14:44 23.43805 119.83287 18681 ft 423 kts 134°
2026-04-14 14:44 23.41877 119.85693 18221 ft 420 kts 134°
2026-04-14 14:44 23.39956 119.88080 17696 ft 418 kts 134°
2026-04-14 14:45 23.38050 119.90448 17212 ft 414 kts 134°
2026-04-14 14:45 23.36156 119.92800 16756 ft 411 kts 134°
2026-04-14 14:45 23.34277 119.95121 16279 ft 407 kts 134°
2026-04-14 14:45 23.32407 119.97418 15839 ft 404 kts 134°
2026-04-14 14:46 23.30548 119.99698 15381 ft 401 kts 134°
2026-04-14 14:46 23.28706 120.01957 14930 ft 398 kts 134°
2026-04-14 14:46 23.26876 120.04203 14479 ft 395 kts 134°
2026-04-14 14:46 23.25057 120.06435 14005 ft 393 kts 134°
2026-04-14 14:47 23.23249 120.08653 13545 ft 391 kts 134°
2026-04-14 14:47 23.21451 120.10858 13067 ft 388 kts 134°
2026-04-14 14:47 23.19670 120.13041 12608 ft 384 kts 134°
2026-04-14 14:47 23.17906 120.15203 12166 ft 380 kts 133°
2026-04-14 14:48 23.16156 120.17338 11750 ft 373 kts 135°
2026-04-14 14:48 23.14163 120.19031 11321 ft 361 kts 156°
2026-04-14 14:48 23.11798 120.19806 10951 ft 351 kts 175°
2026-04-14 14:48 23.09420 120.19835 10815 ft 335 kts 189°
2026-04-14 14:49 23.07164 120.19419 10673 ft 323 kts 193°
2026-04-14 14:49 23.05026 120.18956 10537 ft 312 kts 193°
2026-04-14 14:49 23.02937 120.18493 10398 ft 301 kts 193°
2026-04-14 14:49 23.00915 120.18050 10274 ft 290 kts 193°
2026-04-14 14:50 22.98976 120.17632 10148 ft 279 kts 193°
2026-04-14 14:50 22.97108 120.17235 10025 ft 268 kts 193°
2026-04-14 14:50 22.95268 120.16846 9746 ft 273 kts 193°
2026-04-14 14:50 22.93378 120.16449 9432 ft 279 kts 193°
2026-04-14 14:51 22.91463 120.16050 9118 ft 281 kts 193°
2026-04-14 14:51 22.89554 120.15655 8777 ft 278 kts 193°
2026-04-14 14:51 22.87669 120.15265 8447 ft 274 kts 193°
2026-04-14 14:51 22.85810 120.14881 8131 ft 270 kts 193°
2026-04-14 14:52 22.83979 120.14504 7823 ft 266 kts 193°
2026-04-14 14:52 22.82173 120.14131 7513 ft 264 kts 193°
2026-04-14 14:52 22.80351 120.13755 7229 ft 270 kts 193°
2026-04-14 14:52 22.78507 120.13374 6916 ft 275 kts 192°
2026-04-14 14:53 22.76623 120.12986 6586 ft 275 kts 192°
2026-04-14 14:53 22.74757 120.12603 6269 ft 272 kts 192°
2026-04-14 14:53 22.72907 120.12223 5930 ft 268 kts 192°
2026-04-14 14:53 22.71103 120.11852 5642 ft 262 kts 193°
2026-04-14 14:54 22.69327 120.11486 5292 ft 258 kts 193°
2026-04-14 14:54 22.67583 120.11127 4995 ft 252 kts 193°
2026-04-14 14:54 22.65925 120.10787 4683 ft 233 kts 193°
2026-04-14 14:54 22.64392 120.10472 4405 ft 215 kts 193°
2026-04-14 14:55 22.62960 120.10178 4199 ft 202 kts 193°
2026-04-14 14:55 22.61613 120.10069 3927 ft 196 kts 170°
2026-04-14 14:55 22.60333 120.10592 3753 ft 200 kts 150°
2026-04-14 14:55 22.59186 120.11461 3551 ft 198 kts 152°
2026-04-14 14:56 22.57404 120.13479 3378 ft 193 kts 93°
2026-04-14 14:56 22.57611 120.14909 3218 ft 197 kts 73°
2026-04-14 14:56 22.57901 120.16321 3078 ft 186 kts 80°
2026-04-14 14:57 22.58036 120.17698 2819 ft 179 kts 84°
2026-04-14 14:57 22.58128 120.18996 2600 ft 171 kts 86°
2026-04-14 14:57 22.58145 120.20262 2389 ft 166 kts 89°
2026-04-14 14:57 22.58119 120.21496 2171 ft 160 kts 90°
2026-04-14 14:58 22.58085 120.22688 2001 ft 160 kts 90°
2026-04-14 14:58 22.58048 120.23896 1796 ft 160 kts 90°
2026-04-14 14:58 22.58012 120.25090 1565 ft 158 kts 91°
2026-04-14 14:58 22.57975 120.26266 1357 ft 158 kts 91°
2026-04-14 14:59 22.57939 120.27454 1148 ft 158 kts 91°
2026-04-14 14:59 22.57903 120.28637 954 ft 157 kts 90°
2026-04-14 14:59 22.57867 120.29811 739 ft 159 kts 90°
2026-04-14 14:59 22.57830 120.31012 566 ft 160 kts 90°
2026-04-14 15:00 22.57794 120.32216 352 ft 161 kts 91°
2026-04-14 15:00 22.57759 120.33421 137 ft 160 kts 90°
2026-04-14 15:00 22.57725 120.34605 43 ft 147 kts 92°
2026-04-14 15:00 22.57693 120.35467 42 ft 81 kts 92°
2026-04-14 15:01 22.57682 120.35903 43 ft 37 kts 92°